Weather History for KHYX - March, 2013

Change the Weather History Date:

Friday, March 22, 2013

  Actual Average (KMBS) Record (KMBS)
Temperature  
Mean Temperature 32 °F 36 °F  
Max Temperature 37 °F 45 °F - ()
Min Temperature 26 °F 27 °F - ()
Degree Days  
Heating Degree Days 34    
Month to date heating degree days  
Since 1 July heating degree days  
Cooling Degree Days 0    
Month to date cooling degree days  
Year to date cooling degree days  
Moisture  
Dew Point 22 °F    
Average Humidity 72    
Maximum Humidity 87    
Minimum Humidity 60    
Precipitation  
Precipitation 0.00 in 0.07 in - ()
Month to date precipitation 1.44  
Year to date precipitation 4.76  
Snow  
Snow 0.00 in - - ()
Month to date snowfall  
Since 1 July snowfall  
Snow Depth -    
Sea Level Pressure  
Sea Level Pressure 29.96 in    
Wind  
Wind Speed 11 mph (WNW)    
Max Wind Speed 17 mph    
Max Gust Speed 23 mph    
Visibility 10 miles    
Events      
T = Trace of Precipitation, MM = Missing Value Source: NWS Daily Summary

Daily Weather History Graph

Daily Weather History Graph

Search for Another Location

Airport or City:

Trip Planner

Search our weather history database for the weather conditions in past years. The results will help you decide how hot, cold, wet, or windy it might be!

Date:

Astronomy

Mar. 22, 2013 Rise Set
Actual Time 7:34 AM EDT 7:50 PM EDT
Civil Twilight 7:06 AM EDT 8:19 PM EDT
Nautical Twilight 6:32 AM EDT 8:52 PM EDT
Astronomical Twilight 5:58 AM EDT 9:27 PM EDT
Moon 3:09 PM EDT (3/22) 4:42 AM EDT (3/22)
Length of Visible Light 13h 12m
Length of Day
12h 15m
Waxing Gibbous, 77% of the Moon is Illuminated
Mar 22
Waxing Gibbous
Mar 27
Full
Apr 3
Last Quarter
Apr 10
New
Apr 18
First Quarter

Hourly Weather History & Observations

Time (EDT) Temp. Windchill Dew Point Humidity Pressure Visibility Wind Dir Wind Speed Gust Speed Precip Events Conditions
12:12 AM 28.4 °F 19.1 °F 21.2 °F 74% 29.90 in 10.0 mi WNW 10.4 mph - N/A   Overcast
12:32 AM 28.4 °F 17.0 °F 21.2 °F 74% 29.90 in 10.0 mi WNW 15.0 mph - N/A   Overcast
12:52 AM 28.4 °F 16.2 °F 19.4 °F 69% 29.90 in 10.0 mi WNW 17.3 mph 23.0 mph N/A   Overcast
1:12 AM 28.4 °F 16.2 °F 19.4 °F 69% 29.91 in 10.0 mi NW 17.3 mph 21.9 mph N/A   Overcast
1:32 AM 28.4 °F 18.5 °F 19.4 °F 69% 29.91 in 10.0 mi NW 11.5 mph 19.6 mph N/A   Overcast
1:55 AM 28.4 °F 17.5 °F 21.2 °F 74% 29.91 in 10.0 mi NW 13.8 mph - N/A   Overcast
2:15 AM 28.4 °F 18.5 °F 19.4 °F 69% 29.92 in 10.0 mi NW 11.5 mph - N/A   Overcast
2:35 AM 28.4 °F 16.6 °F 19.4 °F 69% 29.92 in 10.0 mi WNW 16.1 mph - N/A   Overcast
2:52 AM 28.4 °F 17.5 °F 19.4 °F 69% 29.92 in 10.0 mi WNW 13.8 mph - N/A   Overcast
3:12 AM 28.4 °F 17.5 °F 19.4 °F 69% 29.93 in 10.0 mi WNW 13.8 mph - N/A   Overcast
3:32 AM 28.4 °F 17.5 °F 19.4 °F 69% 29.93 in 10.0 mi WNW 13.8 mph - N/A   Overcast
3:52 AM 28.4 °F 16.6 °F 19.4 °F 69% 29.93 in 10.0 mi WNW 16.1 mph 21.9 mph N/A   Overcast
4:13 AM 28.4 °F 18.0 °F 19.4 °F 69% 29.93 in 10.0 mi WNW 12.7 mph - N/A   Overcast
4:33 AM 28.4 °F 17.5 °F 19.4 °F 69% 29.93 in 10.0 mi WNW 13.8 mph 17.3 mph N/A   Overcast
4:53 AM 28.4 °F 17.5 °F 19.4 °F 69% 29.93 in 10.0 mi WNW 13.8 mph - N/A   Overcast
5:13 AM 28.4 °F 18.0 °F 19.4 °F 69% 29.92 in 10.0 mi West 12.7 mph 17.3 mph N/A   Overcast
5:33 AM 28.4 °F 18.5 °F 19.4 °F 69% 29.93 in 10.0 mi West 11.5 mph - N/A   Overcast
5:53 AM 26.6 °F 15.7 °F 19.4 °F 74% 29.93 in 10.0 mi West 12.7 mph - N/A   Overcast
6:13 AM 26.6 °F 16.8 °F 19.4 °F 74% 29.94 in 10.0 mi WNW 10.4 mph - N/A   Overcast
6:34 AM 26.6 °F 18.2 °F 19.4 °F 74% 29.95 in 10.0 mi WNW 8.1 mph - N/A   Overcast
6:54 AM 26.6 °F 17.5 °F 19.4 °F 74% 29.95 in 10.0 mi WNW 9.2 mph - N/A   Overcast
7:14 AM 26.6 °F 18.2 °F 19.4 °F 74% 29.96 in 10.0 mi West 8.1 mph - N/A   Overcast
7:34 AM 26.6 °F 17.5 °F 19.4 °F 74% 29.96 in 10.0 mi West 9.2 mph - N/A   Overcast
7:54 AM 26.6 °F 17.5 °F 19.4 °F 74% 29.96 in 10.0 mi West 9.2 mph - N/A   Overcast
8:14 AM 26.6 °F 17.5 °F 19.4 °F 74% 29.96 in 10.0 mi West 9.2 mph - N/A   Overcast
8:34 AM 28.4 °F 19.7 °F 19.4 °F 69% 29.96 in 10.0 mi West 9.2 mph - N/A   Overcast
8:54 AM 28.4 °F 19.1 °F 19.4 °F 69% 29.97 in 10.0 mi West 10.4 mph - N/A   Overcast
9:14 AM 28.4 °F 18.0 °F 19.4 °F 69% 29.96 in 10.0 mi West 12.7 mph 18.4 mph N/A   Overcast
9:34 AM 28.4 °F 17.5 °F 19.4 °F 69% 29.97 in 10.0 mi WNW 13.8 mph - N/A   Overcast
9:54 AM 28.4 °F 18.0 °F 19.4 °F 69% 29.97 in 10.0 mi West 12.7 mph - N/A   Overcast
10:14 AM 28.4 °F 18.5 °F 19.4 °F 69% 29.96 in 10.0 mi West 11.5 mph - N/A   Overcast
10:34 AM 28.4 °F 18.5 °F 19.4 °F 69% 29.96 in 10.0 mi WNW 11.5 mph - N/A   Overcast
10:55 AM 30.2 °F 21.9 °F 21.2 °F 69% 29.96 in 10.0 mi WNW 9.2 mph 17.3 mph N/A   Overcast
11:15 AM 30.2 °F 21.3 °F 21.2 °F 69% 29.96 in 10.0 mi WNW 10.4 mph - N/A   Overcast
11:35 AM 30.2 °F 22.6 °F 21.2 °F 69% 29.96 in 10.0 mi WNW 8.1 mph - N/A   Overcast
11:55 AM 30.2 °F 22.6 °F 21.2 °F 69% 29.96 in 10.0 mi WNW 8.1 mph - N/A   Overcast
12:15 PM 32.0 °F 23.6 °F 23.0 °F 69% 29.96 in 10.0 mi West 10.4 mph - N/A   Overcast
12:35 PM 32.0 °F 24.8 °F 23.0 °F 69% 29.96 in 10.0 mi West 8.1 mph - N/A   Overcast
12:55 PM 32.0 °F 24.8 °F 23.0 °F 69% 29.96 in 10.0 mi West 8.1 mph - N/A   Overcast
1:15 PM 32.0 °F 23.0 °F 23.0 °F 69% 29.96 in 10.0 mi West 11.5 mph - N/A   Overcast
1:35 PM 32.0 °F 23.6 °F 23.0 °F 69% 29.96 in 10.0 mi West 10.4 mph - N/A   Overcast
1:55 PM 33.8 °F 25.3 °F 23.0 °F 65% 29.96 in 10.0 mi West 11.5 mph - N/A   Overcast
2:11 PM 32.0 °F 22.5 °F 23.0 °F 69% 29.96 in 10.0 mi West 12.7 mph - N/A   Overcast
2:31 PM 32.0 °F 23.6 °F 23.0 °F 69% 29.96 in 10.0 mi West 10.4 mph 16.1 mph N/A   Overcast
2:51 PM 33.8 °F 23.9 °F 24.8 °F 70% 29.96 in 10.0 mi West 15.0 mph - N/A   Overcast
3:11 PM 32.0 °F 22.1 °F 24.8 °F 75% 29.96 in 10.0 mi WSW 13.8 mph 18.4 mph N/A   Overcast
3:31 PM 33.8 °F 24.3 °F 23.0 °F 65% 29.96 in 10.0 mi WSW 13.8 mph - N/A   Overcast
3:51 PM 33.8 °F 23.9 °F 24.8 °F 70% 29.96 in 10.0 mi West 15.0 mph 18.4 mph N/A   Overcast
4:11 PM 35.6 °F 27.1 °F 24.8 °F 65% 29.95 in 10.0 mi West 12.7 mph 18.4 mph N/A   Overcast
4:31 PM 35.6 °F 29.9 °F 24.8 °F 65% 29.95 in 10.0 mi West 6.9 mph - N/A   Mostly Cloudy
4:52 PM 35.6 °F 26.6 °F 24.8 °F 65% 29.94 in 10.0 mi West 13.8 mph 17.3 mph N/A   Mostly Cloudy
5:12 PM 37.4 °F 32.1 °F 24.8 °F 60% 29.94 in 10.0 mi West 6.9 mph - N/A   Mostly Cloudy
5:32 PM 35.6 °F 29.2 °F 24.8 °F 65% 29.94 in 10.0 mi West 8.1 mph - N/A   Scattered Clouds
5:52 PM 35.6 °F 28.6 °F 24.8 °F 65% 29.95 in 10.0 mi West 9.2 mph - N/A   Mostly Cloudy
6:12 PM 37.4 °F 30.8 °F 24.8 °F 60% 29.95 in 10.0 mi West 9.2 mph 17.3 mph N/A   Mostly Cloudy
6:32 PM 35.6 °F 29.2 °F 26.6 °F 70% 29.95 in 10.0 mi West 8.1 mph - N/A   Mostly Cloudy
6:52 PM 35.6 °F 29.2 °F 26.6 °F 70% 29.96 in 10.0 mi West 8.1 mph - N/A   Overcast
7:12 PM 35.6 °F 29.9 °F 26.6 °F 70% 29.96 in 10.0 mi West 6.9 mph - N/A   Overcast
7:32 PM 35.6 °F 28.6 °F 26.6 °F 70% 29.96 in 10.0 mi NW 9.2 mph - N/A   Overcast
7:52 PM 33.8 °F 27.0 °F 26.6 °F 75% 29.97 in 10.0 mi NW 8.1 mph - N/A   Mostly Cloudy
8:12 PM 32.0 °F 24.8 °F 26.6 °F 80% 29.98 in 10.0 mi NW 8.1 mph - N/A   Clear
8:32 PM 32.0 °F 27.5 °F 26.6 °F 80% 29.98 in 10.0 mi NW 4.6 mph - N/A   Clear
8:52 PM 32.0 °F 27.5 °F 26.6 °F 80% 29.99 in 10.0 mi NNW 4.6 mph - N/A   Clear
9:12 PM 32.0 °F 27.5 °F 26.6 °F 80% 29.99 in 10.0 mi NNW 4.6 mph - N/A   Clear
9:33 PM 32.0 °F 27.5 °F 26.6 °F 80% 30.00 in 10.0 mi NNW 4.6 mph - N/A   Clear
9:53 PM 32.0 °F 27.5 °F 26.6 °F 80% 30.01 in 10.0 mi NW 4.6 mph - N/A   Clear
10:13 PM 30.2 °F 25.4 °F 26.6 °F 86% 30.01 in 10.0 mi WNW 4.6 mph - N/A   Clear
10:33 PM 30.2 °F 25.4 °F 26.6 °F 86% 30.01 in 10.0 mi WNW 4.6 mph - N/A   Clear
10:53 PM 30.2 °F 25.4 °F 24.8 °F 80% 30.01 in 10.0 mi WNW 4.6 mph - N/A   Clear
11:13 PM 28.4 °F 23.3 °F 24.8 °F 86% 30.01 in 10.0 mi WNW 4.6 mph - N/A   Clear
11:33 PM 30.2 °F 26.7 °F 26.6 °F 86% 30.01 in 10.0 mi West 3.5 mph - N/A   Scattered Clouds
11:53 PM 32.0 °F - 28.4 °F 87% 30.01 in 10.0 mi Calm Calm - N/A   Overcast